ABL907 RKPC-RKSS

Flight info

Callsign ABL907
Flight time 0h 46m
Altitude 23000
Route KAMIT1W KAMIT Y722 OLMEN OLMEN2T
Aircraft A321/M-SDE3FGHIRWY/LB1

Departure

Time 2025-09-07 02:08
Airport Jeju International Airport (RKPC)

Arrival

Time 2025-09-07 02:55
Airport Gimpo International Airport (RKSS)
Time Latitude Longitude Altitude Speed Heading
2025-09-07 01:40 33.50708 126.49183 94 ft 0 kts 156°
2025-09-07 01:57 33.50733 126.49170 95 ft 9 kts 156°
2025-09-07 01:58 33.50767 126.49151 92 ft 9 kts 134°
2025-09-07 01:58 33.50777 126.49132 94 ft 9 kts 97°
2025-09-07 01:58 33.50768 126.49087 92 ft 9 kts 61°
2025-09-07 01:59 33.50760 126.49070 94 ft 31 kts 58°
2025-09-07 02:01 33.50772 126.49094 93 ft 9 kts 58°
2025-09-07 02:02 33.50896 126.49331 93 ft 20 kts 58°
2025-09-07 02:02 33.50972 126.49473 94 ft 20 kts 57°
2025-09-07 02:02 33.51167 126.49660 94 ft 16 kts 18°
2025-09-07 02:03 33.51376 126.49822 94 ft 12 kts 352°
2025-09-07 02:04 33.51391 126.49814 94 ft 0 kts 333°
2025-09-07 02:05 33.51412 126.49800 93 ft 5 kts 330°
2025-09-07 02:06 33.51437 126.49662 93 ft 0 kts 237°
2025-09-07 02:06 33.51425 126.49639 95 ft 13 kts 237°
2025-09-07 02:07 33.50252 126.47332 541 ft 163 kts 237°
2025-09-07 02:08 33.49012 126.44922 1694 ft 181 kts 237°
2025-09-07 02:08 33.47499 126.42011 2258 ft 230 kts 238°
2025-09-07 02:09 33.45715 126.38548 3491 ft 251 kts 239°
2025-09-07 02:09 33.45183 126.36542 4139 ft 259 kts 265°
2025-09-07 02:09 33.46379 126.32520 5626 ft 274 kts 314°
2025-09-07 02:10 33.50046 126.31373 7020 ft 295 kts 13°
2025-09-07 02:10 33.53791 126.33491 8368 ft 303 kts 25°
2025-09-07 02:11 33.59494 126.36977 10221 ft 317 kts 24°
2025-09-07 02:12 33.63704 126.39520 10460 ft 358 kts 24°
2025-09-07 02:12 33.68374 126.42338 10705 ft 392 kts 25°
2025-09-07 02:12 33.70852 126.43844 10875 ft 405 kts 25°
2025-09-07 02:13 33.75934 126.46945 11674 ft 413 kts 25°
2025-09-07 02:13 33.81105 126.50078 12560 ft 419 kts 25°
2025-09-07 02:14 33.86353 126.53265 13419 ft 426 kts 25°
2025-09-07 02:14 33.91681 126.56518 14198 ft 431 kts 25°
2025-09-07 02:15 33.97064 126.59799 14969 ft 435 kts 25°
2025-09-07 02:16 34.04299 126.64211 15996 ft 441 kts 25°
2025-09-07 02:16 34.07038 126.65886 16355 ft 443 kts 25°
2025-09-07 02:16 34.12561 126.69277 17063 ft 447 kts 25°
2025-09-07 02:17 34.18137 126.72708 17753 ft 453 kts 25°
2025-09-07 02:17 34.23833 126.76044 18386 ft 455 kts 18°
2025-09-07 02:18 34.29988 126.77652 18989 ft 453 kts
2025-09-07 02:18 34.36302 126.78302 19583 ft 457 kts
2025-09-07 02:19 34.45863 126.79323 20418 ft 462 kts
2025-09-07 02:20 34.52304 126.80011 20967 ft 465 kts
2025-09-07 02:20 34.55531 126.80357 21254 ft 466 kts
2025-09-07 02:20 34.62021 126.81050 21783 ft 470 kts
2025-09-07 02:21 34.68514 126.81756 22294 ft 473 kts
2025-09-07 02:21 34.75132 126.82467 22799 ft 476 kts
2025-09-07 02:22 34.81782 126.83172 22890 ft 483 kts
2025-09-07 02:22 34.88484 126.83897 22890 ft 483 kts
2025-09-07 02:23 34.95144 126.84620 22890 ft 483 kts
2025-09-07 02:23 35.01842 126.85344 22889 ft 483 kts
2025-09-07 02:24 35.08538 126.86066 22889 ft 483 kts
2025-09-07 02:24 35.15241 126.86793 22904 ft 483 kts
2025-09-07 02:25 35.21937 126.87521 22885 ft 484 kts
2025-09-07 02:26 35.32011 126.88612 22875 ft 484 kts
2025-09-07 02:26 35.38729 126.89333 22891 ft 486 kts
2025-09-07 02:26 35.42092 126.89697 22885 ft 485 kts
2025-09-07 02:27 35.52175 126.90812 22871 ft 485 kts
2025-09-07 02:28 35.58899 126.91552 22876 ft 485 kts
2025-09-07 02:28 35.65631 126.92281 22867 ft 486 kts
2025-09-07 02:29 35.72377 126.93020 22867 ft 486 kts
2025-09-07 02:29 35.79117 126.93764 22869 ft 486 kts
2025-09-07 02:30 35.85865 126.94507 22872 ft 487 kts
2025-09-07 02:30 35.89238 126.94878 22867 ft 487 kts
2025-09-07 02:30 35.95991 126.95614 22875 ft 487 kts
2025-09-07 02:31 36.06118 126.96738 22866 ft 487 kts
2025-09-07 02:31 36.09495 126.97114 22862 ft 487 kts
2025-09-07 02:32 36.19680 126.98249 22869 ft 489 kts
2025-09-07 02:33 36.26407 126.99003 22854 ft 488 kts
2025-09-07 02:33 36.33166 126.99763 22882 ft 489 kts
2025-09-07 02:34 36.39954 127.00336 22882 ft 485 kts 354°
2025-09-07 02:34 36.46697 127.00082 22881 ft 485 kts 354°
2025-09-07 02:35 36.53452 126.99814 22880 ft 485 kts 354°
2025-09-07 02:35 36.60205 126.99561 22870 ft 485 kts 354°
2025-09-07 02:36 36.66826 126.99343 22483 ft 460 kts 354°
2025-09-07 02:36 36.72955 127.00215 22133 ft 429 kts 15°
2025-09-07 02:36 36.75591 127.01726 21887 ft 406 kts 27°
2025-09-07 02:37 36.81808 127.08349 19650 ft 383 kts 40°
2025-09-07 02:37 36.83746 127.10594 18835 ft 378 kts 40°
2025-09-07 02:38 36.89405 127.17127 16294 ft 360 kts 39°
2025-09-07 02:38 36.91210 127.19202 15498 ft 353 kts 39°
2025-09-07 02:39 36.96491 127.25287 13128 ft 336 kts 39°
2025-09-07 02:40 36.99913 127.29252 12307 ft 329 kts 39°
2025-09-07 02:40 37.03242 127.33119 11835 ft 325 kts 40°
2025-09-07 02:41 37.06774 127.36575 10838 ft 324 kts 17°
2025-09-07 02:41 37.11009 127.36385 10067 ft 293 kts 327°
2025-09-07 02:42 37.14707 127.34612 9416 ft 294 kts 358°
2025-09-07 02:42 37.16706 127.35234 9029 ft 301 kts 24°
2025-09-07 02:42 37.20215 127.38073 8220 ft 301 kts 31°
2025-09-07 02:43 37.25812 127.40053 7996 ft 281 kts 338°
2025-09-07 02:44 37.28695 127.37108 8006 ft 270 kts 295°
2025-09-07 02:44 37.29373 127.32536 8010 ft 268 kts 274°
2025-09-07 02:45 37.29661 127.27862 7985 ft 267 kts 274°
2025-09-07 02:45 37.29949 127.23206 7752 ft 267 kts 274°
2025-09-07 02:45 37.30287 127.20911 7627 ft 268 kts 289°
2025-09-07 02:46 37.31584 127.16503 7326 ft 269 kts 289°
2025-09-07 02:46 37.32872 127.12146 6667 ft 267 kts 289°
2025-09-07 02:47 37.34962 127.05631 5496 ft 261 kts 304°
2025-09-07 02:48 37.37320 127.02534 4734 ft 229 kts 314°
2025-09-07 02:48 37.39419 126.99913 4184 ft 203 kts 314°
2025-09-07 02:49 37.41399 126.97442 3658 ft 204 kts 313°
2025-09-07 02:49 37.42422 126.96164 3365 ft 207 kts 314°
2025-09-07 02:49 37.44301 126.93821 2893 ft 169 kts 314°
2025-09-07 02:50 37.45823 126.91919 2464 ft 145 kts 314°
2025-09-07 02:50 37.47215 126.90179 2102 ft 138 kts 313°
2025-09-07 02:51 37.49261 126.87618 1560 ft 136 kts 316°
2025-09-07 02:52 37.50617 126.85943 1258 ft 134 kts 313°
2025-09-07 02:52 37.51289 126.85095 1036 ft 137 kts 316°
2025-09-07 02:53 37.53323 126.82539 506 ft 141 kts 315°
2025-09-07 02:53 37.54011 126.81675 317 ft 139 kts 315°
2025-09-07 02:53 37.55333 126.80013 57 ft 115 kts 313°
2025-09-07 02:54 37.56011 126.79163 59 ft 40 kts 315°
2025-09-07 02:54 37.56332 126.79041 64 ft 17 kts 93°
2025-09-07 02:55 37.56075 126.79374 64 ft 21 kts 134°
2025-09-07 02:56 37.55930 126.79671 67 ft 18 kts 99°
2025-09-07 02:56 37.55882 126.79976 66 ft 10 kts 133°
2025-09-07 02:57 37.55797 126.80145 65 ft 10 kts 53°
2025-09-07 02:57 37.55833 126.80189 66 ft 0 kts 45°
2025-09-07 03:07 37.55809 126.80160 57 ft 3 kts 44°
2025-09-07 03:07 37.55796 126.80144 60 ft 2 kts 44°
2025-09-07 03:08 37.55793 126.80090 67 ft 2 kts 135°
2025-09-07 03:08 37.55796 126.80087 67 ft 2 kts 135°
2025-09-07 03:12 37.55718 126.80184 59 ft 12 kts 135°
2025-09-07 03:13 37.55657 126.80259 65 ft 8 kts 135°
2025-09-07 03:13 37.55491 126.80211 63 ft 15 kts 226°
2025-09-07 03:14 37.55363 126.80267 62 ft 13 kts 129°
2025-09-07 03:14 37.55231 126.80446 65 ft 11 kts 135°
2025-09-07 03:15 37.55051 126.80664 61 ft 15 kts 136°
2025-09-07 03:15 37.54965 126.80771 59 ft 18 kts 135°
2025-09-07 03:16 37.54857 126.80799 62 ft 0 kts 221°
2025-09-07 03:17 37.54817 126.80751 57 ft 0 kts 228°
2025-09-07 03:17 37.54826 126.80650 60 ft 10 kts 309°
2025-09-07 03:18 37.54849 126.80619 54 ft 0 kts 314°
2025-09-07 03:18 37.54865 126.80599 58 ft 10 kts 316°
2025-09-07 03:19 37.56349 126.78730 120 ft 174 kts 315°
2025-09-07 03:20 37.58117 126.76464 1303 ft 185 kts 311°
2025-09-07 03:20 37.60046 126.73832 2183 ft 230 kts 313°
2025-09-07 03:21 37.62324 126.70562 3519 ft 258 kts 298°
2025-09-07 03:21 37.61953 126.66236 5514 ft 270 kts 236°
2025-09-07 03:21 37.60695 126.64426 6514 ft 276 kts 224°
2025-09-07 03:22 37.57784 126.61068 7755 ft 285 kts 225°
2025-09-07 03:22 37.54184 126.59074 8002 ft 293 kts 187°
2025-09-07 03:23 37.48099 126.58308 8008 ft 292 kts 189°
2025-09-07 03:24 37.44058 126.57746 8008 ft 292 kts 189°
2025-09-07 03:24 37.40012 126.57452 8010 ft 294 kts 176°
2025-09-07 03:25 37.35984 126.58477 8009 ft 295 kts 171°
2025-09-07 03:25 37.31969 126.59567 8013 ft 296 kts 170°
2025-09-07 03:25 37.29966 126.60176 8011 ft 296 kts 168°
2025-09-07 03:26 37.25990 126.61505 8009 ft 296 kts 167°
2025-09-07 03:26 37.22014 126.62852 7997 ft 295 kts 168°
2025-09-07 03:27 37.16172 126.64791 8006 ft 294 kts 168°
2025-09-07 03:28 37.12212 126.66096 8004 ft 294 kts 168°
2025-09-07 03:28 37.08242 126.67399 8005 ft 295 kts 168°
2025-09-07 03:29 37.04273 126.68694 8055 ft 296 kts 168°
2025-09-07 03:29 37.00268 126.70010 9211 ft 300 kts 168°
2025-09-07 03:29 36.98241 126.70678 9761 ft 303 kts 169°
2025-09-07 03:30 36.94044 126.72060 10307 ft 327 kts 168°
2025-09-07 03:30 36.89436 126.73705 10544 ft 361 kts 161°
2025-09-07 03:31 36.84618 126.76182 10784 ft 388 kts 160°
2025-09-07 03:32 36.76837 126.80154 11406 ft 411 kts 161°
2025-09-07 03:32 36.74211 126.81472 11835 ft 411 kts 162°
2025-09-07 03:32 36.68606 126.82767 12552 ft 409 kts 183°
2025-09-07 03:33 36.62884 126.82819 13293 ft 413 kts 182°
2025-09-07 03:33 36.57103 126.83029 13992 ft 418 kts 181°
2025-09-07 03:34 36.51321 126.83291 14681 ft 420 kts 181°
2025-09-07 03:34 36.45433 126.83537 15378 ft 422 kts 182°
2025-09-07 03:35 36.36647 126.83573 16353 ft 422 kts 189°
2025-09-07 03:36 36.30773 126.82919 16948 ft 426 kts 189°
2025-09-07 03:36 36.24846 126.82263 17509 ft 430 kts 189°
2025-09-07 03:36 36.21854 126.81935 17781 ft 432 kts 189°
2025-09-07 03:37 36.12817 126.80963 18516 ft 438 kts 188°
2025-09-07 03:37 36.09775 126.80643 18735 ft 439 kts 189°
2025-09-07 03:38 36.03661 126.79983 19173 ft 442 kts 189°
2025-09-07 03:39 35.94411 126.78969 19739 ft 448 kts 189°
2025-09-07 03:39 35.89233 126.78409 20084 ft 451 kts 188°
2025-09-07 03:40 35.81898 126.77621 20654 ft 455 kts 188°
2025-09-07 03:40 35.76645 126.77051 20972 ft 457 kts 188°
2025-09-07 03:40 35.73469 126.76703 21154 ft 459 kts 189°
2025-09-07 03:41 35.67093 126.76008 21513 ft 461 kts 188°
2025-09-07 03:41 35.60672 126.75319 21867 ft 464 kts 188°
2025-09-07 03:42 35.54213 126.74634 22203 ft 467 kts 189°
2025-09-07 03:42 35.47726 126.73935 22523 ft 470 kts 189°
2025-09-07 03:43 35.37916 126.72879 22989 ft 473 kts 188°
2025-09-07 03:44 35.31346 126.72180 23247 ft 475 kts 188°
2025-09-07 03:44 35.28042 126.71826 23374 ft 476 kts 188°
2025-09-07 03:45 35.18122 126.70771 23693 ft 478 kts 188°
2025-09-07 03:45 35.11490 126.70070 23883 ft 477 kts 188°
2025-09-07 03:46 35.04879 126.69369 23891 ft 476 kts 188°
2025-09-07 03:46 34.98281 126.68666 23893 ft 476 kts 188°
2025-09-07 03:46 34.94983 126.68317 23893 ft 476 kts 188°
2025-09-07 03:47 34.85082 126.67274 23887 ft 476 kts 188°
2025-09-07 03:48 34.78407 126.66559 23466 ft 484 kts 188°
2025-09-07 03:48 34.71747 126.65852 22961 ft 481 kts 188°
2025-09-07 03:48 34.68418 126.65504 22710 ft 479 kts 188°
2025-09-07 03:49 34.58603 126.64483 20862 ft 454 kts 187°
2025-09-07 03:49 34.55521 126.64172 20113 ft 436 kts 187°
2025-09-07 03:50 34.49637 126.63565 18703 ft 420 kts 187°
2025-09-07 03:50 34.43835 126.63035 17399 ft 415 kts 181°
2025-09-07 03:51 34.35233 126.64374 15896 ft 412 kts 175°
2025-09-07 03:52 34.29592 126.65304 14544 ft 406 kts 175°
2025-09-07 03:52 34.26801 126.65770 13905 ft 403 kts 175°
2025-09-07 03:53 34.18616 126.67145 12054 ft 387 kts 175°
2025-09-07 03:53 34.15959 126.67588 11465 ft 382 kts 175°
2025-09-07 03:53 34.10859 126.68443 11005 ft 353 kts 175°
2025-09-07 03:54 34.06215 126.69230 10765 ft 322 kts 176°
2025-09-07 03:54 34.01943 126.69942 10423 ft 300 kts 176°
2025-09-07 03:55 33.95847 126.70947 9839 ft 293 kts 176°
2025-09-07 03:56 33.91831 126.71614 9591 ft 292 kts 176°
2025-09-07 03:56 33.87805 126.72279 9274 ft 292 kts 176°
2025-09-07 03:57 33.83807 126.72942 8551 ft 288 kts 176°
2025-09-07 03:57 33.81832 126.73271 8172 ft 285 kts 176°
2025-09-07 03:57 33.77922 126.73918 7428 ft 282 kts 176°
2025-09-07 03:58 33.74065 126.74558 6696 ft 271 kts 176°
2025-09-07 03:58 33.70513 126.75162 6011 ft 249 kts 176°
2025-09-07 03:59 33.65579 126.75338 5070 ft 220 kts 205°
2025-09-07 04:00 33.63424 126.73085 4363 ft 195 kts 239°
2025-09-07 04:00 33.62118 126.70525 3854 ft 166 kts 239°
2025-09-07 04:00 33.61532 126.69378 3676 ft 156 kts 239°
2025-09-07 04:01 33.60341 126.67047 3263 ft 169 kts 239°
2025-09-07 04:01 33.59112 126.64644 2826 ft 163 kts 238°
2025-09-07 04:02 33.57993 126.62455 2431 ft 149 kts 238°
2025-09-07 04:02 33.56918 126.60357 2077 ft 146 kts 239°
2025-09-07 04:03 33.55311 126.57220 1525 ft 146 kts 242°
2025-09-07 04:04 33.54245 126.55142 1075 ft 146 kts 240°
2025-09-07 04:04 33.53696 126.54129 900 ft 146 kts 240°
2025-09-07 04:04 33.52668 126.52044 581 ft 145 kts 240°
2025-09-07 04:05 33.51618 126.50014 209 ft 144 kts 241°
2025-09-07 04:05 33.50737 126.48298 94 ft 89 kts 238°
2025-09-07 04:06 33.50348 126.47586 94 ft 27 kts 218°
2025-09-07 04:06 33.50177 126.47570 95 ft 12 kts 71°
2025-09-07 04:07 33.50362 126.47943 97 ft 31 kts 58°
2025-09-07 04:07 33.50592 126.48395 95 ft 32 kts 58°
2025-09-07 04:08 33.50727 126.48898 94 ft 16 kts 145°
2025-09-07 04:09 33.50728 126.49002 93 ft 0 kts 57°
2025-09-07 04:10 33.50732 126.49009 93 ft 5 kts 57°
2025-09-07 04:10 33.50810 126.49035 94 ft 0 kts 330°
2025-09-07 04:12 33.52313 126.51372 422 ft 146 kts 240°
2025-09-07 04:13 33.51217 126.49211 99 ft 143 kts 233°
2025-09-07 04:13 33.52724 126.52162 560 ft 142 kts 241°
2025-09-07 04:13 33.52135 126.51087 445 ft 159 kts 243°
2025-09-07 04:14 33.51158 126.49118 91 ft 68 kts 239°
2025-09-07 04:14 33.52166 126.51101 362 ft 142 kts 241°
2025-09-07 04:15 33.50758 126.48338 95 ft 91 kts 238°
2025-09-07 04:16 33.50429 126.47697 95 ft 0 kts 239°
2025-09-07 04:16 33.52375 126.51538 250 ft 142 kts 247°